Time,TemperatureF,DewpointF,PressureIn,WindDirection,WindDirectionDegrees,WindSpeedMPH,WindSpeedGustMPH,Humidity,HourlyPrecipIn,Conditions,Clouds,dailyrainin,SoftwareType,DateUTC
2013-07-20 00:02:00,79.0,-99.9,-100.00,SW,228,10.0,16.0,-999,-99.99,,,-99.99,,2013-07-20 04:02:00,
2013-07-20 00:12:00,79.0,-99.9,-100.00,SW,228,10.0,16.0,-999,-99.99,,,-99.99,,2013-07-20 04:12:00,
2013-07-20 00:44:00,79.0,-99.9,-100.00,SW,232,9.0,11.0,-999,-99.99,,,-99.99,,2013-07-20 04:44:00,
2013-07-20 00:52:00,79.0,-99.9,-100.00,SW,232,9.0,11.0,-999,-99.99,,,-99.99,,2013-07-20 04:52:00,
2013-07-20 01:02:00,79.0,-99.9,-100.00,SW,232,9.0,11.0,-999,-99.99,,,-99.99,,2013-07-20 05:02:00,
2013-07-20 01:12:00,79.0,-99.9,-100.00,SW,232,9.0,11.0,-999,-99.99,,,-99.99,,2013-07-20 05:12:00,
2013-07-20 01:52:00,78.0,-99.9,-100.00,SW,235,5.0,11.0,-999,-99.99,,,-99.99,,2013-07-20 05:52:00,
2013-07-20 02:01:00,78.0,-99.9,-100.00,SW,235,5.0,11.0,-999,-99.99,,,-99.99,,2013-07-20 06:01:00,
2013-07-20 02:11:00,78.0,-99.9,-100.00,SW,235,5.0,11.0,-999,-99.99,,,-99.99,,2013-07-20 06:11:00,
2013-07-20 02:43:00,78.0,-99.9,-100.00,SW,227,9.0,13.0,-999,-99.99,,,-99.99,,2013-07-20 06:43:00,
2013-07-20 02:52:00,78.0,-99.9,-100.00,SW,227,9.0,13.0,-999,-99.99,,,-99.99,,2013-07-20 06:52:00,
2013-07-20 03:01:00,78.0,-99.9,-100.00,SW,227,9.0,13.0,-999,-99.99,,,-99.99,,2013-07-20 07:01:00,
2013-07-20 03:12:00,78.0,-99.9,-100.00,SW,227,9.0,13.0,-999,-99.99,,,-99.99,,2013-07-20 07:12:00,
2013-07-20 03:44:00,77.0,-99.9,-100.00,SW,227,10.0,15.0,-999,-99.99,,,-99.99,,2013-07-20 07:44:00,
2013-07-20 03:54:00,77.0,-99.9,-100.00,SW,227,10.0,15.0,-999,-99.99,,,-99.99,,2013-07-20 07:54:00,
2013-07-20 04:02:00,77.0,-99.9,-100.00,SW,227,10.0,15.0,-999,-99.99,,,-99.99,,2013-07-20 08:02:00,
2013-07-20 04:11:00,77.0,-99.9,-100.00,SW,227,10.0,15.0,-999,-99.99,,,-99.99,,2013-07-20 08:11:00,
2013-07-20 04:44:00,76.0,-99.9,-100.00,SW,221,7.0,12.0,-999,-99.99,,,-99.99,,2013-07-20 08:44:00,
2013-07-20 04:52:00,76.0,-99.9,-100.00,SW,221,7.0,12.0,-999,-99.99,,,-99.99,,2013-07-20 08:52:00,
2013-07-20 05:02:00,76.0,-99.9,-100.00,SW,221,7.0,12.0,-999,-99.99,,,-99.99,,2013-07-20 09:02:00,
2013-07-20 05:11:00,76.0,-99.9,-100.00,SW,221,7.0,12.0,-999,-99.99,,,-99.99,,2013-07-20 09:11:00,
2013-07-20 05:43:00,76.0,-99.9,-100.00,SW,219,7.0,9.0,-999,-99.99,,,-99.99,,2013-07-20 09:43:00,
2013-07-20 05:53:00,76.0,-99.9,-100.00,SW,219,7.0,9.0,-999,-99.99,,,-99.99,,2013-07-20 09:53:00,
2013-07-20 06:02:00,76.0,-99.9,-100.00,SW,219,7.0,9.0,-999,-99.99,,,-99.99,,2013-07-20 10:02:00,
2013-07-20 06:11:00,76.0,-99.9,-100.00,SW,219,7.0,9.0,-999,-99.99,,,-99.99,,2013-07-20 10:11:00,
2013-07-20 06:42:00,76.0,-99.9,-100.00,WSW,245,10.0,13.0,-999,0.00,,,-99.99,,2013-07-20 10:42:00,
2013-07-20 06:52:00,76.0,-99.9,-100.00,WSW,245,10.0,13.0,-999,0.00,,,-99.99,,2013-07-20 10:52:00,
2013-07-20 07:02:00,76.0,-99.9,-100.00,WSW,245,10.0,13.0,-999,0.00,,,-99.99,,2013-07-20 11:02:00,
2013-07-20 07:11:00,76.0,-99.9,-100.00,WSW,245,10.0,13.0,-999,0.00,,,-99.99,,2013-07-20 11:11:00,
2013-07-20 07:43:00,78.0,-99.9,-100.00,WSW,238,9.0,12.0,-999,0.00,,,-99.99,,2013-07-20 11:43:00,
2013-07-20 07:52:00,78.0,-99.9,-100.00,WSW,238,9.0,12.0,-999,0.00,,,-99.99,,2013-07-20 11:52:00,
2013-07-20 08:01:00,78.0,-99.9,-100.00,WSW,238,9.0,12.0,-999,0.00,,,-99.99,,2013-07-20 12:01:00,
2013-07-20 08:11:00,78.0,-99.9,-100.00,WSW,238,9.0,12.0,-999,0.00,,,-99.99,,2013-07-20 12:11:00,
2013-07-20 08:53:00,80.0,-99.9,-100.00,SW,233,10.0,15.0,-999,-99.99,,,-99.99,,2013-07-20 12:53:00,
2013-07-20 09:02:00,80.0,-99.9,-100.00,SW,233,10.0,15.0,-999,-99.99,,,-99.99,,2013-07-20 13:02:00,
2013-07-20 09:11:00,80.0,-99.9,-100.00,SW,233,10.0,15.0,-999,-99.99,,,-99.99,,2013-07-20 13:11:00,
2013-07-20 09:43:00,79.0,-99.9,-100.00,SW,219,8.0,12.0,-999,-99.99,,,-99.99,,2013-07-20 13:43:00,
2013-07-20 09:53:00,79.0,-99.9,-100.00,SW,219,8.0,12.0,-999,-99.99,,,-99.99,,2013-07-20 13:53:00,
2013-07-20 10:02:00,79.0,-99.9,-100.00,SW,219,8.0,12.0,-999,-99.99,,,-99.99,,2013-07-20 14:02:00,
2013-07-20 10:11:00,79.0,-99.9,-100.00,SW,219,8.0,12.0,-999,-99.99,,,-99.99,,2013-07-20 14:11:00,
2013-07-20 10:43:00,83.0,-99.9,-100.00,SSW,200,9.0,12.0,-999,-99.99,,,-99.99,,2013-07-20 14:43:00,
2013-07-20 10:53:00,83.0,-99.9,-100.00,SSW,200,9.0,12.0,-999,-99.99,,,-99.99,,2013-07-20 14:53:00,
2013-07-20 11:01:00,83.0,-99.9,-100.00,SSW,200,9.0,12.0,-999,-99.99,,,-99.99,,2013-07-20 15:01:00,
2013-07-20 11:11:00,83.0,-99.9,-100.00,SSW,200,9.0,12.0,-999,-99.99,,,-99.99,,2013-07-20 15:11:00,
2013-07-20 11:44:00,85.0,-99.9,-100.00,SW,218,10.0,15.0,-999,-99.99,,,-99.99,,2013-07-20 15:44:00,
2013-07-20 11:53:00,85.0,-99.9,-100.00,SW,218,10.0,15.0,-999,-99.99,,,-99.99,,2013-07-20 15:53:00,
2013-07-20 12:02:00,85.0,-99.9,-100.00,SW,218,10.0,15.0,-999,-99.99,,,-99.99,,2013-07-20 16:02:00,
2013-07-20 12:11:00,85.0,-99.9,-100.00,SW,218,10.0,15.0,-999,-99.99,,,-99.99,,2013-07-20 16:11:00,
2013-07-20 12:44:00,84.0,-99.9,-100.00,SW,235,17.0,21.0,-999,-99.99,,,-99.99,,2013-07-20 16:44:00,
2013-07-20 12:52:00,84.0,-99.9,-100.00,SW,235,17.0,21.0,-999,-99.99,,,-99.99,,2013-07-20 16:52:00,
2013-07-20 13:02:00,84.0,-99.9,-100.00,SW,235,17.0,21.0,-999,-99.99,,,-99.99,,2013-07-20 17:02:00,
2013-07-20 13:11:00,84.0,-99.9,-100.00,SW,235,17.0,21.0,-999,-99.99,,,-99.99,,2013-07-20 17:11:00,
2013-07-20 13:43:00,83.0,-99.9,-100.00,SW,224,16.0,21.0,-999,-99.99,,,-99.99,,2013-07-20 17:43:00,
2013-07-20 13:53:00,83.0,-99.9,-100.00,SW,224,16.0,21.0,-999,-99.99,,,-99.99,,2013-07-20 17:53:00,
2013-07-20 14:01:00,83.0,-99.9,-100.00,SW,224,16.0,21.0,-999,-99.99,,,-99.99,,2013-07-20 18:01:00,
2013-07-20 14:12:00,83.0,-99.9,-100.00,SW,224,16.0,21.0,-999,-99.99,,,-99.99,,2013-07-20 18:12:00,
2013-07-20 14:15:00,86.0,-99.9,-100.00,SW,225,13.0,18.0,-999,-99.99,,,-99.99,,2013-07-20 18:15:00,
2013-07-20 14:47:00,86.0,-99.9,-100.00,SW,225,13.0,18.0,-999,-99.99,,,-99.99,,2013-07-20 18:47:00,
2013-07-20 14:59:00,86.0,-99.9,-100.00,SW,225,13.0,18.0,-999,-99.99,,,-99.99,,2013-07-20 18:59:00,
2013-07-20 15:07:00,86.0,-99.9,-100.00,SW,225,13.0,18.0,-999,-99.99,,,-99.99,,2013-07-20 19:07:00,
2013-07-20 15:15:00,84.0,-99.9,-100.00,SW,225,16.0,21.0,-999,-99.99,,,-99.99,,2013-07-20 19:15:00,
2013-07-20 15:58:00,84.0,-99.9,-100.00,SW,225,16.0,21.0,-999,-99.99,,,-99.99,,2013-07-20 19:58:00,
2013-07-20 16:07:00,84.0,-99.9,-100.00,SW,225,16.0,21.0,-999,-99.99,,,-99.99,,2013-07-20 20:07:00,
2013-07-20 16:15:00,85.0,-99.9,-100.00,SW,232,13.0,21.0,-999,-99.99,,,-99.99,,2013-07-20 20:15:00,
2013-07-20 16:47:00,85.0,-99.9,-100.00,SW,232,13.0,21.0,-999,-99.99,,,-99.99,,2013-07-20 20:47:00,
2013-07-20 16:58:00,85.0,-99.9,-100.00,SW,232,13.0,21.0,-999,-99.99,,,-99.99,,2013-07-20 20:58:00,
2013-07-20 17:08:00,85.0,-99.9,-100.00,SW,232,13.0,21.0,-999,-99.99,,,-99.99,,2013-07-20 21:08:00,
2013-07-20 17:49:00,84.0,-99.9,-100.00,SW,224,12.0,17.0,-999,-99.99,,,-99.99,,2013-07-20 21:49:00,
2013-07-20 17:57:00,84.0,-99.9,-100.00,SW,224,12.0,17.0,-999,-99.99,,,-99.99,,2013-07-20 21:57:00,
2013-07-20 18:09:00,84.0,-99.9,-100.00,SW,224,12.0,17.0,-999,-99.99,,,-99.99,,2013-07-20 22:09:00,
2013-07-20 18:51:00,82.0,-99.9,-100.00,SW,231,14.0,17.0,-999,-99.99,,,-99.99,,2013-07-20 22:51:00,
2013-07-20 18:57:00,82.0,-99.9,-100.00,SW,231,14.0,17.0,-999,-99.99,,,-99.99,,2013-07-20 22:57:00,
2013-07-20 19:06:00,82.0,-99.9,-100.00,SW,231,14.0,17.0,-999,-99.99,,,-99.99,,2013-07-20 23:06:00,
2013-07-20 19:15:00,80.0,-99.9,-100.00,SW,234,7.0,13.0,-999,-99.99,,,-99.99,,2013-07-20 23:15:00,
2013-07-20 19:47:00,80.0,-99.9,-100.00,SW,234,7.0,13.0,-999,-99.99,,,-99.99,,2013-07-20 23:47:00,
2013-07-20 19:58:00,80.0,-99.9,-100.00,SW,234,7.0,13.0,-999,-99.99,,,-99.99,,2013-07-20 23:58:00,
2013-07-20 20:09:00,80.0,-99.9,-100.00,SW,234,7.0,13.0,-999,-99.99,,,-99.99,,2013-07-21 00:09:00,
2013-07-20 20:45:00,78.0,-99.9,-100.00,SW,229,8.0,11.0,-999,-99.99,,,-99.99,,2013-07-21 00:45:00,
2013-07-20 21:08:00,78.0,-99.9,-100.00,SW,229,8.0,11.0,-999,-99.99,,,-99.99,,2013-07-21 01:08:00,
2013-07-20 21:15:00,77.0,-99.9,-100.00,WSW,239,5.0,7.0,-999,-99.99,,,-99.99,,2013-07-21 01:15:00,
2013-07-20 21:49:00,-999.0,-99.9,-100.00,WSW,239,5.0,7.0,-999,-99.99,,,-99.99,,2013-07-21 01:49:00,
2013-07-20 22:00:00,77.0,-99.9,-100.00,WSW,239,5.0,7.0,-999,-99.99,,,-99.99,,2013-07-21 02:00:00,
2013-07-20 22:07:00,77.0,-99.9,-100.00,WSW,239,5.0,7.0,-999,-99.99,,,-99.99,,2013-07-21 02:07:00,
2013-07-20 22:15:00,76.0,-99.9,-100.00,West,281,2.0,3.0,-999,-99.99,,,-99.99,,2013-07-21 02:15:00,
2013-07-20 22:48:00,76.0,-99.9,-100.00,West,281,2.0,3.0,-999,-99.99,,,-99.99,,2013-07-21 02:48:00,
2013-07-20 23:05:00,76.0,-99.9,-100.00,West,281,2.0,3.0,-999,-99.99,,,-99.99,,2013-07-21 03:05:00,
2013-07-20 23:47:00,76.0,-99.9,-100.00,NW,306,2.0,3.0,-999,-99.99,,,-99.99,,2013-07-21 03:47:00,